KI0MQ Weather Reports


time (UTC)temp
F
wind
direction
speed
knots
gust
knots
rain 1hr
in
rain 24hr
in
rain mn
in
humidity
%
barometer
mb
20260503222504 75 248 0.9 3.5 0.00 0.00 0.00 36 1008.4
20260503221507 75 261 0.9 3.5 0.00 0.00 0.00 35 1008.4
20260503220504 75 243 0.9 2.6 0.00 0.00 0.00 39 1008.5
20260503215503 75 239 1.7 4.3 0.00 0.00 0.00 35 1008.4
20260503215004 75 231 1.7 4.3 0.00 0.00 0.00 38 1008.4
20260503214507 75 231 1.7 4.3 0.00 0.00 0.00 38 1008.5
20260503214005 75 226 0.9 4.3 0.00 0.00 0.00 36 1008.7
20260503213503 76 224 0.9 2.6 0.00 0.00 0.00 36 1008.8
20260503213008 75 267 0.9 3.5 0.00 0.00 0.00 38 1008.9
20260503212504 75 314 1.7 3.5 0.00 0.00 0.00 37 1008.9
20260503212004 74 311 2.6 5.2 0.00 0.00 0.00 34 1009.0
20260503211507 75 324 1.7 5.2 0.00 0.00 0.00 34 1009.0
20260503211003 75 345 1.7 5.2 0.00 0.00 0.00 34 1009.1
20260503210504 76 309 0.9 5.2 0.00 0.00 0.00 35 1009.2
20260503210007 75 347 0.9 4.3 0.00 0.00 0.00 38 1009.4
20260503205503 75 20 1.7 6.1 0.00 0.00 0.00 34 1009.4
20260503204508 76 279 0.9 3.5 0.00 0.00 0.00 35 1009.5
20260503204003 75 287 0.9 3.5 0.00 0.00 0.00 34 1009.6
20260503203503 76 18 1.7 5.2 0.00 0.00 0.00 35 1009.7
20260503203007 76 22 0.9 5.2 0.00 0.00 0.00 34 1009.7
20260503202504 75 25 0.9 4.3 0.00 0.00 0.00 35 1009.7
20260503202004 75 352 1.7 7.8 0.00 0.00 0.00 37 1009.8
20260503201507 74 335 2.6 7.8 0.00 0.00 0.00 34 1010.0
20260503201003 74 345 3.5 7.8 0.00 0.00 0.00 35 1010.0
20260503200504 74 354 3.5 8.7 0.00 0.00 0.00 35 1010.1
20260503200007 74 343 3.5 8.7 0.00 0.00 0.00 35 1010.1
20260503195504 74 323 1.7 7.8 0.00 0.00 0.00 35 1010.2
20260503194507 74 15 1.7 4.3 0.00 0.00 0.00 38 1010.2
20260503194003 74 6 0.9 4.3 0.00 0.00 0.00 36 1010.2
20260503193504 74 312 0.9 5.2 0.00 0.00 0.00 36 1010.3
20260503192504 73 346 2.6 7.8 0.00 0.00 0.00 35 1010.4
20260503192003 73 345 2.6 7.8 0.00 0.00 0.00 35 1010.4
20260503191508 74 336 2.6 8.7 0.00 0.00 0.00 36 1010.5
20260503191003 73 331 3.5 9.6 0.00 0.00 0.00 36 1010.5
20260503190503 74 349 3.5 11.3 0.00 0.00 0.00 36 1010.6
20260503190008 74 7 3.5 11.3 0.00 0.00 0.00 35 1010.6
20260503185503 74 13 2.6 7.0 0.00 0.00 0.00 35 1010.6
20260503185004 73 19 3.5 12.2 0.00 0.00 0.00 36 1010.5
20260503184507 73 12 3.5 12.2 0.00 0.00 0.00 36 1010.7
20260503184004 74 15 2.6 8.7 0.00 0.00 0.00 37 1010.6
20260503183008 73 22 1.7 7.8 0.00 0.00 0.00 37 1010.7
20260503182503 73 24 1.7 7.0 0.00 0.00 0.00 37 1010.7
20260503182003 73 1 1.7 6.1 0.00 0.00 0.00 38 1010.9
20260503180503 73 12 1.7 11.3 0.00 0.00 0.00 38 1011.2
20260503180007 73 10 1.7 6.1 0.00 0.00 0.00 40 1011.2
20260503175503 72 346 1.7 7.0 0.00 0.00 0.00 39 1011.3
20260503175003 72 347 1.7 7.8 0.00 0.00 0.00 38 1011.3
20260503174507 72 11 1.7 7.8 0.00 0.00 0.00 39 1011.4
20260503174004 71 15 2.6 7.0 0.00 0.00 0.00 38 1011.3
20260503173503 70 22 2.6 7.0 0.00 0.00 0.00 38 1011.4
20260503173007 71 25 2.6 7.0 0.00 0.00 0.00 36 1011.4
20260503172504 71 18 2.6 9.6 0.00 0.00 0.00 38 1011.4
20260503172003 71 10 3.5 9.6 0.00 0.00 0.00 39 1011.5
20260503171003 70 352 3.5 10.4 0.00 0.00 0.00 37 1011.5
20260503170504 70 356 3.5 10.4 0.00 0.00 0.00 38 1011.5
20260503151003 62 332 1.7 5.2 0.00 0.00 0.00 54 1011.5
20260503150503 62 338 2.6 5.2 0.00 0.00 0.00 54 1011.5
20260503131004 56 240 0.9 2.6 0.00 0.00 0.00 58 1010.6
20260503130503 56 239 0.9 2.6 0.00 0.00 0.00 57 1010.5
20260503110504 53 217 0.0 0.9 0.00 0.00 0.00 58 1010.5
20260503090503 57 233 1.7 5.2 0.00 0.00 0.00 49 1009.9
20260503081507 56 198 0.9 5.2 0.00 0.00 0.00 49 1010.3
20260503080503 56 203 0.9 4.3 0.00 0.00 0.00 49 1010.5
20260503072503 56 196 1.7 4.3 0.00 0.00 0.00 48 1010.7
20260503072003 56 192 0.9 3.5 0.00 0.00 0.00 48 1010.7
20260503071508 56 190 0.9 3.5 0.00 0.00 0.00 48 1010.8
20260503070504 56 197 1.7 3.5 0.00 0.00 0.00 47 1010.8
20260503055003 58 199 2.6 7.0 0.00 0.00 0.00 45 1011.8
20260503054508 58 195 2.6 7.0 0.00 0.00 0.00 44 1011.7
20260503054003 58 198 1.7 8.7 0.00 0.00 0.00 44 1011.7
20260503053504 58 202 2.6 8.7 0.00 0.00 0.00 45 1011.8
20260503053008 58 201 1.7 4.3 0.00 0.00 0.00 45 1011.9
20260503052504 58 200 2.6 5.2 0.00 0.00 0.00 45 1011.8
20260503052003 58 205 2.6 5.2 0.00 0.00 0.00 45 1011.8
20260503050503 57 199 2.6 7.0 0.00 0.00 0.00 46 1011.8
20260503050010 57 197 1.7 7.0 0.00 0.00 0.00 46 1011.9
20260503045504 57 200 1.7 7.0 0.00 0.00 0.00 46 1012.0
20260503045004 57 197 2.6 7.0 0.00 0.00 0.00 47 1012.0
20260503044003 57 197 2.6 5.2 0.00 0.00 0.00 46 1012.1
20260503043008 57 196 2.6 7.0 0.00 0.00 0.00 45 1012.2
20260503042504 57 199 2.6 5.2 0.00 0.00 0.00 46 1012.3
20260503042004 57 201 1.7 5.2 0.00 0.00 0.00 45 1012.5
20260503041508 58 203 1.7 5.2 0.00 0.00 0.00 45 1012.5
20260503041004 58 200 1.7 4.3 0.00 0.00 0.00 44 1012.5
20260503040503 58 197 1.7 4.3 0.00 0.00 0.00 44 1012.6
20260503040008 58 197 1.7 4.3 0.00 0.00 0.00 44 1012.7
20260503035503 58 200 2.6 5.2 0.00 0.00 0.00 43 1012.7
20260503034508 59 194 2.6 5.2 0.00 0.00 0.00 42 1012.7
20260503033503 60 198 2.6 6.1 0.00 0.00 0.00 42 1012.8
20260503032504 60 201 2.6 7.0 0.00 0.00 0.00 41 1012.9
20260503031508 60 196 2.6 6.1 0.00 0.00 0.00 42 1013.1
20260503030504 60 200 2.6 5.2 0.00 0.00 0.00 41 1013.2
20260503025504 60 195 1.7 4.3 0.00 0.00 0.00 42 1013.2
20260503025004 59 182 0.9 4.3 0.00 0.00 0.00 43 1013.2
20260503024509 59 188 0.9 4.3 0.00 0.00 0.00 43 1013.3
20260503024003 59 201 0.9 2.6 0.00 0.00 0.00 44 1013.4
20260503023503 59 206 0.9 2.6 0.00 0.00 0.00 44 1013.4
20260503022503 59 207 0.0 1.7 0.00 0.00 0.00 43 1013.5
20260503021003 60 213 0.0 1.7 0.00 0.00 0.00 43 1013.7
20260503020504 61 205 0.0 1.7 0.00 0.00 0.00 41 1013.8
20260503020008 61 195 0.0 1.7 0.00 0.00 0.00 41 1013.8
20260503015503 61 0 0.0 0.0 0.00 0.00 0.00 41 1013.8
20260503015003 62 184 0.0 0.9 0.00 0.00 0.00 40 1013.9
20260503014004 63 183 0.0 0.9 0.00 0.00 0.00 41 1013.8
20260503013503 63 183 0.0 0.9 0.00 0.00 0.00 39 1013.9
20260503013008 64 0 0.0 0.0 0.00 0.00 0.00 37 1013.9
20260503012003 64 190 0.9 1.7 0.00 0.00 0.00 36 1013.9
20260503011508 65 199 0.9 3.5 0.00 0.00 0.00 35 1013.9
20260503011004 65 193 0.9 3.5 0.00 0.00 0.00 34 1013.9
20260503010504 65 178 0.9 3.5 0.00 0.00 0.00 34 1013.9
20260503010008 66 182 0.9 3.5 0.00 0.00 0.00 35 1013.9
20260503005503 66 191 0.9 4.3 0.00 0.00 0.00 34 1014.0
20260503004508 67 201 1.7 4.3 0.00 0.00 0.00 33 1014.0
20260503004004 67 204 1.7 5.2 0.00 0.00 0.00 33 1014.0
20260503003503 68 195 1.7 5.2 0.00 0.00 0.00 31 1014.0
20260503002503 68 211 1.7 6.1 0.00 0.00 0.00 31 1014.1
20260503002004 69 216 1.7 5.2 0.00 0.00 0.00 30 1014.1
20260503001508 69 219 0.9 5.2 0.00 0.00 0.00 30 1014.2
20260503001003 70 213 0.9 3.5 0.00 0.00 0.00 29 1014.3
20260503000503 70 197 0.0 1.7 0.00 0.00 0.00 31 1014.3
20260503000009 70 218 0.0 1.7 0.00 0.00 0.00 30 1014.4
20260502235503 70 246 0.0 0.9 0.00 0.00 0.00 30 1014.5
20260502235003 69 246 0.9 1.7 0.00 0.00 0.00 30 1014.6
20260502234509 69 251 0.9 2.6 0.00 0.00 0.00 32 1014.7
20260502234003 68 246 1.7 3.5 0.00 0.00 0.00 29 1014.7
20260502233503 68 218 1.7 4.3 0.00 0.00 0.00 31 1014.8
20260502233008 68 210 1.7 4.3 0.00 0.00 0.00 31 1014.9
20260502232504 68 233 1.7 5.2 0.00 0.00 0.00 31 1014.9
20260502231508 68 244 0.9 2.6 0.00 0.00 0.00 31 1015.0
20260502231004 68 235 0.9 2.6 0.00 0.00 0.00 32 1015.2
20260502224004 68 274 1.7 7.0 0.00 0.00 0.00 31 1015.3
20260502223503 68 220 1.7 5.2 0.00 0.00 0.00 33 1015.4
20260502223008 68 194 1.7 4.3 0.00 0.00 0.00 32 1015.5